| time (UTC) | temp F | wind direction | speed MPH | gust MPH | rain 1hr in | rain 24hr in | rain mn in | humidity % | barometer mb |
| 20260507060105 | 33 | 317 | 6.0 | 16.0 | 0.00 | 0.80 | 0.00 | 100 | 1002.7 |
| 20260507054559 | 33 | 142 | 7.0 | 14.0 | 0.00 | 0.83 | 0.00 | 100 | 1002.5 |
| 20260507053055 | 33 | 164 | 6.0 | 16.0 | 0.00 | 0.83 | 0.00 | 100 | 1002.6 |
| 20260507051557 | 34 | 17 | 5.0 | 10.0 | 0.00 | 0.83 | 0.00 | 100 | 1002.8 |
| 20260507050057 | 34 | 321 | 4.0 | 11.0 | 0.00 | 0.83 | 0.00 | 100 | 1002.7 |
| 20260507044601 | 35 | 252 | 5.0 | 11.0 | 0.00 | 0.83 | 0.00 | 100 | 1002.8 |
| 20260507043059 | 35 | 132 | 3.0 | 7.0 | 0.02 | 0.83 | 0.00 | 100 | 1003.1 |
| 20260507041555 | 35 | 79 | 4.0 | 12.0 | 0.04 | 0.83 | 0.00 | 100 | 1003.5 |
| 20260507040103 | 35 | 112 | 8.0 | 18.0 | 0.04 | 0.83 | 0.00 | 100 | 1003.9 |
| 20260507034559 | 36 | 67 | 6.0 | 15.0 | 0.07 | 0.83 | 0.83 | 100 | 1003.8 |
| 20260507033055 | 36 | 114 | 6.0 | 18.0 | 0.07 | 0.81 | 0.81 | 100 | 1004.2 |
| 20260507031553 | 36 | 82 | 6.0 | 15.0 | 0.07 | 0.79 | 0.79 | 99 | 1004.2 |
| 20260507030055 | 37 | 228 | 5.0 | 14.0 | 0.11 | 0.79 | 0.79 | 99 | 1004.1 |
| 20260507024600 | 37 | 288 | 9.0 | 18.0 | 0.12 | 0.76 | 0.76 | 100 | 1004.2 |
| 20260507023055 | 38 | 296 | 4.0 | 9.0 | 0.12 | 0.74 | 0.74 | 99 | 1003.9 |
| 20260507021558 | 39 | 125 | 1.0 | 5.0 | 0.10 | 0.72 | 0.72 | 100 | 1004.1 |
| 20260507020056 | 41 | 263 | 4.0 | 9.0 | 0.06 | 0.68 | 0.68 | 100 | 1004.2 |
| 20260507014556 | 41 | 275 | 1.0 | 6.0 | 0.02 | 0.64 | 0.64 | 100 | 1003.9 |
| 20260507013056 | 42 | 256 | 1.0 | 7.0 | 0.01 | 0.62 | 0.62 | 100 | 1004.0 |
| 20260507011556 | 43 | 281 | 5.0 | 10.0 | 0.02 | 0.62 | 0.62 | 100 | 1004.2 |
| 20260507010111 | 43 | 353 | 0.0 | 12.0 | 0.03 | 0.62 | 0.62 | 100 | 1004.2 |
| 20260507004554 | 43 | 281 | 2.0 | 6.0 | 0.04 | 0.62 | 0.62 | 100 | 1004.6 |
| 20260507003056 | 43 | 309 | 0.0 | 4.0 | 0.06 | 0.61 | 0.61 | 100 | 1004.5 |
| 20260507001601 | 43 | 320 | 0.0 | 2.0 | 0.09 | 0.60 | 0.60 | 100 | 1004.5 |
| 20260507000105 | 43 | 350 | 2.0 | 6.0 | 0.12 | 0.58 | 0.58 | 100 | 1004.5 |
| 20260506234616 | 43 | 223 | 1.0 | 9.0 | 0.14 | 0.58 | 0.58 | 100 | 1004.7 |
| 20260506233103 | 43 | 53 | 3.0 | 11.0 | 0.11 | 0.55 | 0.55 | 99 | 1004.7 |
| 20260506231557 | 46 | 281 | 4.0 | 10.0 | 0.07 | 0.51 | 0.51 | 100 | 1004.5 |
| 20260506230058 | 48 | 164 | 2.0 | 13.0 | 0.03 | 0.46 | 0.46 | 100 | 1004.3 |
| 20260506224556 | 48 | 116 | 12.0 | 21.0 | 0.02 | 0.47 | 0.44 | 100 | 1003.7 |
| 20260506223101 | 48 | 210 | 14.0 | 23.0 | 0.02 | 0.47 | 0.44 | 100 | 1003.6 |
| 20260506221613 | 47 | 169 | 8.0 | 14.0 | 0.03 | 0.47 | 0.44 | 100 | 1004.3 |
| 20260506220056 | 47 | 171 | 9.0 | 17.0 | 0.03 | 0.46 | 0.43 | 100 | 1004.5 |
| 20260506214604 | 47 | 140 | 7.0 | 15.0 | 0.02 | 0.58 | 0.42 | 100 | 1004.7 |
| 20260506213058 | 47 | 177 | 7.0 | 16.0 | 0.03 | 0.58 | 0.42 | 100 | 1004.7 |
| 20260506211556 | 47 | 210 | 9.0 | 18.0 | 0.04 | 0.57 | 0.41 | 100 | 1004.7 |
| 20260506210101 | 47 | 135 | 11.0 | 16.0 | 0.04 | 0.56 | 0.40 | 100 | 1004.6 |
| 20260506204608 | 48 | 155 | 9.0 | 16.0 | 0.05 | 0.56 | 0.40 | 100 | 1004.8 |
| 20260506203054 | 48 | 210 | 7.0 | 12.0 | 0.05 | 0.55 | 0.39 | 100 | 1004.9 |
| 20260506201556 | 48 | 184 | 7.0 | 13.0 | 0.05 | 0.52 | 0.37 | 100 | 1004.9 |
| 20260506200056 | 48 | 177 | 8.0 | 15.0 | 0.06 | 0.52 | 0.36 | 100 | 1005.1 |
| 20260506194557 | 48 | 154 | 6.0 | 12.0 | 0.07 | 0.51 | 0.35 | 100 | 1005.2 |
| 20260506193055 | 47 | 210 | 6.0 | 13.0 | 0.07 | 0.50 | 0.34 | 100 | 1005.5 |
| 20260506191553 | 47 | 162 | 8.0 | 18.0 | 0.10 | 0.48 | 0.32 | 100 | 1005.7 |
| 20260506190058 | 47 | 142 | 11.0 | 21.0 | 0.09 | 0.46 | 0.30 | 100 | 1005.8 |
| 20260506184553 | 47 | 144 | 13.0 | 23.0 | 0.10 | 0.44 | 0.28 | 100 | 1005.8 |
| 20260506183100 | 47 | 210 | 8.0 | 17.0 | 0.13 | 0.43 | 0.27 | 100 | 1005.9 |
| 20260506181559 | 46 | 210 | 9.0 | 17.0 | 0.11 | 0.38 | 0.22 | 100 | 1006.2 |
| 20260506180058 | 46 | 126 | 12.0 | 18.0 | 0.10 | 0.37 | 0.21 | 100 | 1005.8 |
| 20260506174600 | 46 | 145 | 11.0 | 16.0 | 0.08 | 0.34 | 0.18 | 100 | 1006.2 |
| 20260506173126 | 46 | 158 | 12.0 | 23.0 | 0.04 | 0.30 | 0.14 | 100 | 1005.9 |
| 20260506171556 | 47 | 134 | 15.0 | 23.0 | 0.02 | 0.27 | 0.11 | 100 | 1006.1 |
| 20260506170053 | 47 | 139 | 15.0 | 26.0 | 0.02 | 0.27 | 0.11 | 100 | 1006.2 |
| 20260506164555 | 46 | 210 | 14.0 | 25.0 | 0.01 | 0.26 | 0.10 | 100 | 1006.5 |
| 20260506163056 | 46 | 139 | 14.0 | 25.0 | 0.01 | 0.26 | 0.10 | 100 | 1006.9 |
| 20260506161605 | 46 | 116 | 19.0 | 34.0 | 0.00 | 0.25 | 0.09 | 100 | 1007.0 |
| 20260506160105 | 47 | 136 | 20.0 | 29.0 | 0.00 | 0.25 | 0.09 | 100 | 1007.1 |
| 20260506154601 | 47 | 127 | 19.0 | 28.0 | 0.00 | 0.25 | 0.09 | 100 | 1007.3 |
| 20260506153055 | 47 | 135 | 18.0 | 27.0 | 0.00 | 0.25 | 0.09 | 100 | 1007.3 |
| 20260506151558 | 47 | 138 | 19.0 | 28.0 | 0.01 | 0.25 | 0.09 | 100 | 1007.3 |
| 20260506144609 | 46 | 123 | 18.0 | 25.0 | 0.02 | 0.25 | 0.09 | 100 | 1007.1 |
| 20260506143057 | 45 | 136 | 16.0 | 25.0 | 0.02 | 0.25 | 0.09 | 100 | 1007.1 |
| 20260506141555 | 46 | 150 | 19.0 | 29.0 | 0.01 | 0.24 | 0.08 | 100 | 1007.5 |
| 20260506140110 | 45 | 127 | 18.0 | 29.0 | 0.00 | 0.23 | 0.07 | 100 | 1007.9 |
| 20260506134554 | 44 | 116 | 19.0 | 29.0 | 0.00 | 0.23 | 0.07 | 100 | 1007.4 |
| 20260506133133 | 44 | 125 | 19.0 | 29.0 | 0.00 | 0.23 | 0.07 | 100 | 1007.2 |
| 20260506131555 | 43 | 210 | 18.0 | 25.0 | 0.00 | 0.23 | 0.07 | 100 | 1007.6 |
| 20260506130137 | 43 | 115 | 20.0 | 27.0 | 0.00 | 0.23 | 0.07 | 99 | 1007.8 |
| 20260506124556 | 43 | 210 | 20.0 | 30.0 | 0.00 | 0.23 | 0.07 | 99 | 1007.9 |
| 20260506123058 | 43 | 141 | 15.0 | 23.0 | 0.00 | 0.23 | 0.07 | 99 | 1008.0 |
| 20260506121600 | 43 | 132 | 15.0 | 24.0 | 0.00 | 0.23 | 0.07 | 98 | 1008.2 |
| 20260506120100 | 44 | 134 | 5.0 | 11.0 | 0.00 | 0.23 | 0.07 | 97 | 1008.5 |
| 20260506114553 | 45 | 132 | 3.0 | 8.0 | 0.00 | 0.23 | 0.07 | 96 | 1008.7 |
| 20260506113056 | 45 | 69 | 3.0 | 12.0 | 0.00 | 0.23 | 0.07 | 96 | 1008.5 |
| 20260506111557 | 45 | 145 | 4.0 | 8.0 | 0.00 | 0.23 | 0.07 | 97 | 1008.5 |
| 20260506110055 | 45 | 140 | 7.0 | 12.0 | 0.00 | 0.23 | 0.07 | 96 | 1008.5 |
| 20260506104605 | 44 | 123 | 4.0 | 10.0 | 0.00 | 0.23 | 0.07 | 97 | 1008.5 |
| 20260506103105 | 44 | 210 | 4.0 | 11.0 | 0.00 | 0.23 | 0.07 | 97 | 1008.7 |
| 20260506101556 | 43 | 117 | 3.0 | 7.0 | 0.00 | 0.23 | 0.07 | 98 | 1008.8 |
| 20260506100109 | 43 | 267 | 4.0 | 9.0 | 0.00 | 0.23 | 0.07 | 98 | 1008.9 |
| 20260506094603 | 43 | 131 | 3.0 | 10.0 | 0.00 | 0.23 | 0.07 | 98 | 1008.9 |
| 20260506093056 | 42 | 247 | 3.0 | 14.0 | 0.00 | 0.23 | 0.07 | 99 | 1008.8 |
| 20260506091557 | 42 | 271 | 5.0 | 11.0 | 0.00 | 0.23 | 0.07 | 99 | 1009.0 |
| 20260506090056 | 42 | 246 | 6.0 | 12.0 | 0.00 | 0.23 | 0.07 | 99 | 1008.5 |
| 20260506084600 | 42 | 264 | 6.0 | 13.0 | 0.00 | 0.23 | 0.07 | 99 | 1008.5 |
| 20260506083059 | 42 | 298 | 4.0 | 14.0 | 0.01 | 0.23 | 0.07 | 99 | 1008.9 |
| 20260506081608 | 42 | 258 | 8.0 | 13.0 | 0.02 | 0.23 | 0.07 | 99 | 1008.8 |
| 20260506073058 | 42 | 279 | 9.0 | 17.0 | 0.02 | 0.22 | 0.06 | 99 | 1009.0 |
| 20260506071557 | 43 | 256 | 6.0 | 17.0 | 0.01 | 0.21 | 0.05 | 99 | 1008.9 |
| 20260506061556 | 43 | 253 | 7.0 | 19.0 | 0.04 | 0.20 | 0.04 | 99 | 1008.8 |